Location: Kergonan
(48.2337°N, 4.5518°W)
Time: 08:48:53
(UTC+00:00)

PAYLOAD B - Pass Details

Date: 18 January 2020
Orbit: 849 x 871 km, 99.1° (Epoch: 27 February)

Event Time Altitude Azimuth Distance (km) Brightness Sun altitude
Rises 06:35:15 0° 11° (N) 3,469 7.3 -14.1°
Reaches altitude 10° 06:37:42 10° 6° (N) 2,529 6.6 -13.7°
Maximum altitude 06:43:05 50° 293° (WNW) 1,109 4.4 -12.9°
Drops below altitude 10° 06:48:27 10° 220° (SW) 2,515 6.4 -12.0°
Sets 06:50:53 0° 215° (SW) 3,448 7.2 -11.6°
